Regional Weather Roundup
Issued by NWS

Home | Current Version | Previous Version | Text Only | Print | Product List | Glossary Off
Versions: 1 2 3 4 5 6 7 8 9 10 11 12 13 14 15 16 17 18 19 20 21 22 23 24 25 26 27 28 29 30 31 32 33 34 35 36 37 38 39 40 41 42 43 44 45 46 47 48 49 50

000
ASUS43 KIND 221709
RWRIN

WEATHER ROUNDUP FOR INDIANA
NATIONAL WEATHER SERVICE INDIANAPOLIS IN
100 PM EDT SUN APR 22 2018

NOTE: "FAIR" INDICATES FEW OR NO CLOUDS BELOW 12,000 FEET WITH NO
SIGNIFICANT WEATHER AND/OR OBSTRUCTIONS TO VISIBILITY.

* - STATION DOES NOT REPORT WEATHER SUCH AS PRECIPITATION OR FOG.

+ - STATION NOT QUALITY CONTROLLED BY THE NATIONAL WEATHER SERVICE.
    USE DATA WITH CAUTION...ESPECIALLY DEWPOINT AND RELATIVE
    HUMIDITY OBSERVATIONS.

INZ001>003-010>013-019-020-221800-
NORTHWEST INDIANA

CITY           SKY/WX    TMP DP  RH WIND       PRES   REMARKS
GARY /AIRPORT/ PTSUNNY   55  25  30 NE12      30.34F
KNOX *+        FAIR      61  21  21 E15       30.32F
LA PORTE +     FAIR      60  25  25 E15G21    30.34F
MICHIGAN CITY+ FAIR      61  28  29 E12       30.34F
MONTICELLO +   FAIR      59  20  22 E10       30.28F
RENSSELAER +   FAIR      61 -31   2 E16G22    30.29F
VALPARAISO     FAIR      62  24  23 E16G23    30.32F

$$

LMZ046-743>745-221800-
SOUTHERN LAKE MICHIGAN

STATION/POSITION TIME  TEMP    WIND        PRES    WAVE
                       AIR SEA DIR/SP/G            HT
                 (UTC) (F)     (DEG/KT/KT) (MB)    (FT)
BURNS HARBOR     1640   45      30/ 16/ 17 1027.4F
MICHIGAN CITY    1640   56      50/ 16/ 18   N/A

$$

INZ004-005-014>016-021>024-221800-
NORTH CENTRAL INDIANA

CITY           SKY/WX    TMP DP  RH WIND       PRES   REMARKS
GOSHEN         FAIR      58  26  29 E15       30.35F
LOGANSPORT +   FAIR      59  28  31 NE12G18   30.30F
PERU/GRISSOM   PTSUNNY   61  25  25 E17       30.29F
ROCHESTER +    FAIR      63  23  22 E14       30.32F
SOUTH BEND     FAIR      58  21  24 E15       30.36F
WARSAW +       FAIR      57  27  30 E12G17    30.33F

$$

INZ006>009-017-018-025>027-221800-
NORTHEAST INDIANA

CITY           SKY/WX    TMP DP  RH WIND       PRES   REMARKS
AUBURN +       FAIR      59  32  36 E10G17    30.36F
FORT WAYNE     PTSUNNY   58  29  33 E15G24    30.34F
HUNTINGTON +   FAIR      58  26  29 E12G17    30.33F

$$

INZ028-029-035-036-043>045-051>053-221800-
WEST CENTRAL INDIANA

CITY           SKY/WX    TMP DP  RH WIND       PRES   REMARKS
CRAWFORDSVL +  FAIR      58  31  35 E15       30.24F
GREENCASTLE +  FAIR      59  32  36 E8        30.24F
LAFAYETTE      FAIR      57  29  34 E15       30.27F
TERRE HAUTE    FAIR      62  35  36 E13       30.21F

$$

INZ030>032-037>040-046>048-054>057-064-065-221800-
CENTRAL INDIANA

CITY           SKY/WX    TMP DP  RH WIND       PRES   REMARKS
COLUMBUS       PTSUNNY   64 N/A N/A E7        30.24F
FISHERS *+     FAIR      55  36  47 E12       30.28F
FRANKFORT +    FAIR      61  29  30 E13G22    30.29S
GREENWOOD *+   FAIR      59  31  34 E12       30.26F
INDIANAPOLIS   CLOUDY    60  29  30 E14       30.26S
-EAGLE CREEK   FAIR      60  32  34 NE9       30.25F
KOKOMO +       FAIR      59  31  34 NE18      30.30F
MARION +       FAIR      56  30  36 E16G22    30.31F
MT COMFORT *+  FAIR      57  39  51 E12       30.28S
SHELBYVILLE    FAIR      63  29  27 E15       30.25S
ZIONSVILLE +   FAIR      57  28  33 E16       30.28S

$$

INZ033-034-041-042-049-050-058-059-221800-
EAST CENTRAL INDIANA

CITY           SKY/WX    TMP DP  RH WIND       PRES   REMARKS
MUNCIE         FAIR      63  29  27 E15G21    30.29F
RICHMOND +     FAIR      54  32  43 E10       30.29F

$$

INZ060-061-067>069-081>083-085>088-221800-
SOUTHWEST INDIANA

CITY           SKY/WX    TMP DP  RH WIND       PRES   REMARKS
EVANSVILLE     FAIR      69  42  37 E10G18    30.14F
HUNTINGBURG +  FAIR      67  42  40 SE14      30.16F
WASHINGTON +   FAIR      65  33  31 E10       30.17F

$$

INZ062-063-066-070>080-084-089>092-221800-
SOUTH CENTRAL AND SOUTHEAST INDIANA

CITY           SKY/WX    TMP DP  RH WIND       PRES   REMARKS
BATESVILLE +   SUNNY     59  30  33 MISG      30.26S
BEDFORD +      FAIR      61  30  31 NE7       30.21S
BLOOMINGTON    FAIR      66  31  27 E14       30.20F
FRENCH LICK *+ FAIR      64  25  22 NE10      30.18F
MADISON *+     FAIR      63  30  29 NE13      30.24F
NORTH VERNON + FAIR      61  32  33 NE10      30.23F
SEYMOUR +      FAIR      66  36  32 E8        30.22F

$$





USA.gov is the U.S. government's official web portal to all federal, state and local government web resources and services.